Location: Quebec
(46.8000°N, 71.2500°W)
Time: 18:09:05
(UTC-04:00)

Tiangong 2 - Pass Details

Date: 11 October 2017
Orbit: 388 x 392 km, 42.8° (Epoch: 16 October)

Event Time Altitude Azimuth Distance (km) Brightness Sun altitude
Exits shadow 04:38:47 15° 135° (SE) 1,178 3.8 -24.3°
Drops below altitude 10° 04:39:57 10° 114° (ESE) 1,421 4.6 -24.1°
Sets 04:42:34 0° 92° (E) 2,280 6.2 -23.7°
